Weather Roundup
Issued by NWS Chicago, IL

Home | Current Version | Previous Version | Text Only | Print | Product List | Glossary On
Versions: 1 2 3 4 5 6 7 8 9 10 11 12 13 14 15 16 17 18 19 20 21 22 23 24 25 26 27 28 29 30 31 32 33 34 35 36 37 38 39 40 41 42 43 44 45 46 47 48 49 50
000
NZUS59 KLOT 260608
HRRLOT

CHICAGO AREA WEATHER ROUNDUP
NATIONAL WEATHER SERVICE CHICAGO/ROMEOVILLE IL
100 AM CDT SUN MAR 26 2017

NOTE: "FAIR" INDICATES FEW OR NO CLOUDS BELOW 12,000 FEET WITH NO
SIGNIFICANT WEATHER AND/OR OBSTRUCTIONS TO VISIBILITY.

* THESE STATIONS ARE NOT UNDER NWS QUALITY CONTROL. THEY ALSO MAY NOT
  REPORT WEATHER SUCH AS PRECIPITATION OR FOG.

ILZ005-006-012>014-019>023-260700-
NORTHEAST ILLINOIS

CITY           SKY/WX    TMP DP  RH WIND       PRES   REMARKS
OHARE          CLOUDY    47  44  90 NE8       29.92F FOG
6HR MIN TEMP:  43; 6HR MAX TEMP:  47; 6HR PCP:  0.07;

MIDWAY         LGT RAIN  49  47  93 VRB7      29.92F FOG
6HR MIN TEMP:  45; 6HR MAX TEMP:  49; 6HR PCP:  0.03;

AURORA         CLOUDY    50  48  93 NE10      29.90F FOG
6HR MIN TEMP:  45; 6HR MAX TEMP:  50; 6HR PCP:  0.05;

LANSING*       CLOUDY    51  51 100 SE10      29.92F
JOLIET*        CLOUDY    53  53  98 E7        29.90F FOG
WAUKEGAN       LGT RAIN  40  40 100 NE8       29.95F FOG
6HR MIN TEMP:  40; 6HR MAX TEMP:  41; 6HR PCP:  0.03;

DUPAGE AIRPORT CLOUDY    47  47 100 NE6       29.91F FOG
6HR MIN TEMP:  44; 6HR MAX TEMP:  47; 6HR PCP:  0.02;

WHEELING       CLOUDY    43  43 100 NE7       29.95F FOG
6HR MIN TEMP:  41; 6HR MAX TEMP:  43; 6HR PCP:  0.06;

KANKAKEE*      CLOUDY    55  54  97 E9        29.90F
MORRIS*        CLOUDY    53  52  96 E8        29.88F FOG
LEWIS AIRPORT* CLOUDY    49  49 100 E8        29.90F FOG
$$

WIZ051-052-058>065-066-070>072-260700-
SOUTHEAST WISCONSIN

CITY           SKY/WX    TMP DP  RH WIND       PRES   REMARKS
MILWAUKEE      LGT RAIN  39  37  92 NE13      29.99F FOG
6HR MIN TEMP:  39; 6HR MAX TEMP:  39; 6HR PCP:  0.03;

KENOSHA*       LGT RAIN  41  40  96 NE10      29.97F VSB 3/4
RACINE*        CLOUDY    39  37  92 NE12      30.00F FOG
WAUKESHA       CLOUDY    36  36 100 NE10      29.99F FOG
WEST BEND      CLOUDY    37  37 100 E12       30.01F FOG
$$

INZ001>003-010>013-019-020-260700-
NORTHWEST INDIANA

CITY           SKY/WX    TMP DP  RH WIND       PRES   REMARKS
GARY*          CLOUDY    53  50  91 E8        29.92F
6HR MIN TEMP:  45; 6HR MAX TEMP:  55; 6HR PCP:  0.01;

MICHIGAN CITY* NOT AVBL
RENSSELAER*    NOT AVBL
VALPARAISO     CLOUDY    50  48  93 E15       29.94F FOG
$$

LMZ740>746-260700-
SOUTHERN LAKE MICHIGAN

STATION/POSITION TIME  SKY/WX   TEMP WIND        PRES    VSBY
                                AIR  DIR/SP/G
                 (UTC)          (F)  (DEG/KT/KT) (MB)    (MI)
HARRISON CRIB    0540            44  100/  7/  7   N/A
BURNHAM HARBOR   0600            43   30/  5/  7   N/A
CALUMET HARBOR   0548                 80/  7/  9 1012.9F
BURNS HARBOR     0540            51  120/ 14/ 20 1013.9F
MICHIGAN CITY    0540            49  110/ 10/ 12   N/A
$$

ABBREVIATIONS USED IN REMARKS
   TC - TEMPERATURE IN CELSIUS
  WCI - WIND CHILL INDEX
   HX - HEAT INDEX
  VSB - VISIBILITY
$$




USA.gov is the U.S. government's official web portal to all federal, state and local government web resources and services.